sat.trackr.live / text

‹ back to catalog

STARLINK-34903

NORAD 65372 · 2025-190X

PAYLOAD ACTIVE UNKNOWN

§ Identity

Operator
Country
US
Launch date
2025-08-28
Launch site
AFETR
Launch vehicle
Mass (kg)
RCS (m²)

Purposes: comms

External: N2YO · Heavens-Above · Gunter

§ Orbital elements

Epoch: 2026-05-25T01:59:28.975200Z

Period
94.10 min
Inclination
53.1585°
Eccentricity
0.0001548
Mean motion
15.30230575 rev/d
Perigee alt
474.1 km
Apogee alt
476.2 km
Semi-major
6,853.3 km
B*
5.0272e-4
RAAN
173.1685°
Arg perigee
75.0205°
Mean anomaly
285.0967°
Rev number
4,145

§ Raw data

STARLINK-349031 65372U 25190X   26145.08297425  .00014573  00000+0  50272-3 0  99932 65372  53.1585 173.1685 0001548  75.0205 285.0967 15.30230575 41452

JSON: /api/v1/satellites/65372 · /tle

For live sub-satellite position, see the globe view (requires WebGL).

§ Visibility from observer

Set your observer location to see the next 7 days of passes ≥ 10°. The values pass through the URL so the page stays shareable.

No JS? Fill the form by hand. The geolocation button needs JavaScript.